When you browse on this site, cookies collect data to enhance your experience and personalize the content and advertising you see.
Visit our Privacy Policy to learn more. By continuing to use the site, you agree to this use of cookies and data.
  • In Hungary
  • List of Countries
  • For 7 days
  • Water Temperature
  • Weather Map
  • News
  • Weather Widgets
  • user-avatar
    Login

    Hourly Weather Assare

    Today, 13 November, Wednesday

    Time Temperature Precipitation Wind Pressure Humidity
    00:00 +26°C° 0 mm 2 mps 716 mmHg 48%
    01:00 +25°C° 0 mm 2 mps 716 mmHg 57%
    02:00 +23°C° 0 mm 1 mps 715 mmHg 66%
    03:00 +20°C° 0 mm 0 mps 715 mmHg 75%
    04:00 +20°C° 0 mm 0 mps 716 mmHg 73%
    05:00 +22°C° 0 mm 1 mps 716 mmHg 72%
    06:00 +23°C° 0 mm 1 mps 717 mmHg 71%
    07:00 +26°C° 0 mm 1 mps 718 mmHg 57%
    08:00 +29°C° 0 mm 2 mps 718 mmHg 43%
    09:00 +34°C° 0 mm 3 mps 719 mmHg 29%
    10:00 +36°C° 0 mm 3 mps 719 mmHg 25%
    11:00 +37°C° 0 mm 3 mps 718 mmHg 22%
    12:00 +39°C° 0 mm 3 mps 718 mmHg 19%
    13:00 +39°C° 0 mm 3 mps 717 mmHg 18%
    14:00 +40°C° 0 mm 3 mps 716 mmHg 17%
    15:00 +40°C° 0 mm 3 mps 715 mmHg 16%
    16:00 +38°C° 0 mm 3 mps 715 mmHg 18%
    17:00 +35°C° 0 mm 2 mps 715 mmHg 21%
    18:00 +32°C° 0 mm 2 mps 714 mmHg 23%
    19:00 +30°C° 0 mm 1 mps 715 mmHg 26%
    20:00 +28°C° 0 mm 1 mps 715 mmHg 28%
    21:00 +27°C° 0 mm 1 mps 716 mmHg 31%
    22:00 +26°C° 0 mm 1 mps 716 mmHg 38%
    23:00 +26°C° 0 mm 2 mps 716 mmHg 45%

    Tomorrow, 14 November, Thursday

    Time Temperature Precipitation Wind Pressure Humidity
    00:00 +25°C° 0 mm 3 mps 716 mmHg 52%
    01:00 +24°C° 0 mm 2 mps 716 mmHg 65%
    02:00 +23°C° 0 mm 1 mps 716 mmHg 77%
    03:00 +21°C° 0 mm 1 mps 716 mmHg 90%
    04:00 +22°C° 0 mm 1 mps 716 mmHg 88%
    05:00 +22°C° 0 mm 1 mps 717 mmHg 86%
    06:00 +20°C° 0 mm 0 mps 717 mmHg 84%
    07:00 +26°C° 0 mm 1 mps 718 mmHg 67%
    08:00 +29°C° 0 mm 2 mps 718 mmHg 50%
    09:00 +33°C° 0 mm 3 mps 719 mmHg 33%
    10:00 +35°C° 0 mm 3 mps 718 mmHg 29%
    11:00 +38°C° 0 mm 3 mps 718 mmHg 25%
    12:00 +40°C° 0 mm 3 mps 717 mmHg 20%
    13:00 +40°C° 0 mm 3 mps 716 mmHg 19%
    14:00 +40°C° 0 mm 3 mps 715 mmHg 18%
    15:00 +40°C° 0 mm 3 mps 715 mmHg 16%
    16:00 +38°C° 0 mm 2 mps 714 mmHg 19%
    17:00 +36°C° 0 mm 2 mps 714 mmHg 22%
    18:00 +32°C° 0 mm 2 mps 714 mmHg 24%
    19:00 +31°C° 0 mm 2 mps 714 mmHg 27%
    20:00 +29°C° 0 mm 1 mps 715 mmHg 30%
    21:00 +28°C° 0 mm 1 mps 715 mmHg 33%
    22:00 +27°C° 0 mm 2 mps 715 mmHg 45%
    23:00 +26°C° 0 mm 3 mps 716 mmHg 57%

    Day after tomorrow, 15 November, Friday

    Time Temperature Precipitation Wind Pressure Humidity
    00:00 +26°C° 0 mm 3 mps 716 mmHg 69%
    01:00 +25°C° 0.1 mm 3 mps 716 mmHg 77%
    02:00 +23°C° 0.1 mm 2 mps 715 mmHg 85%
    03:00 +21°C° 0.1 mm 2 mps 715 mmHg 93%
    04:00 +21°C° 0 mm 2 mps 715 mmHg 90%
    05:00 +23°C° 0 mm 2 mps 716 mmHg 88%
    06:00 +22°C° 0 mm 3 mps 716 mmHg 85%
    07:00 +25°C° 0 mm 3 mps 717 mmHg 72%
    08:00 +28°C° 0 mm 3 mps 717 mmHg 56%
    09:00 +32°C° 0 mm 4 mps 718 mmHg 41%
    10:00 +35°C° 0 mm 3 mps 717 mmHg 35%
    11:00 +37°C° 0 mm 3 mps 717 mmHg 30%
    12:00 +39°C° 0 mm 3 mps 716 mmHg 24%
    13:00 +39°C° 0 mm 2 mps 715 mmHg 23%
    14:00 +40°C° 0 mm 2 mps 715 mmHg 21%
    15:00 +40°C° 0 mm 2 mps 714 mmHg 20%
    16:00 +37°C° 0 mm 1 mps 714 mmHg 24%
    17:00 +34°C° 0 mm 1 mps 713 mmHg 28%
    18:00 +32°C° 0 mm 1 mps 713 mmHg 31%
    19:00 +31°C° 0 mm 1 mps 713 mmHg 34%
    20:00 +28°C° 0 mm 0 mps 714 mmHg 36%
    21:00 +26°C° 0 mm 0 mps 714 mmHg 39%
    22:00 +27°C° 0 mm 1 mps 714 mmHg 48%
    23:00 +26°C° 0 mm 2 mps 714 mmHg 57%

    16 November, Saturday

    Time Temperature Precipitation Wind Pressure Humidity
    00:00 +25°C° 0 mm 3 mps 714 mmHg 67%
    01:00 +23°C° 0 mm 2 mps 713 mmHg 75%
    02:00 +21°C° 0 mm 2 mps 713 mmHg 84%
    03:00 +21°C° 0 mm 1 mps 713 mmHg 93%
    04:00 +22°C° 0 mm 1 mps 714 mmHg 92%
    05:00 +22°C° 0 mm 1 mps 714 mmHg 90%
    06:00 +21°C° 0 mm 2 mps 715 mmHg 89%
    07:00 +25°C° 0 mm 2 mps 716 mmHg 75%
    08:00 +28°C° 0 mm 2 mps 716 mmHg 62%
    09:00 +30°C° 0 mm 2 mps 717 mmHg 49%
    10:00 +34°C° 0 mm 2 mps 716 mmHg 40%
    11:00 +37°C° 0 mm 2 mps 716 mmHg 32%
    12:00 +40°C° 0 mm 2 mps 715 mmHg 24%
    13:00 +40°C° 0 mm 2 mps 715 mmHg 24%
    14:00 +40°C° 0 mm 1 mps 714 mmHg 23%
    15:00 +39°C° 0 mm 1 mps 713 mmHg 23%
    16:00 +36°C° 0 mm 1 mps 713 mmHg 26%
    17:00 +34°C° 0 mm 1 mps 713 mmHg 30%
    18:00 +30°C° 0 mm 0 mps 712 mmHg 33%
    19:00 +29°C° 0 mm 0 mps 713 mmHg 36%
    20:00 +28°C° 0 mm 0 mps 713 mmHg 39%
    21:00 +26°C° 0 mm 0 mps 713 mmHg 42%
    22:00 +27°C° 0 mm 1 mps 713 mmHg 51%
    23:00 +26°C° 0 mm 2 mps 713 mmHg 60%

    17 November, Sunday

    Time Temperature Precipitation Wind Pressure Humidity
    00:00 +25°C° 0 mm 3 mps 713 mmHg 69%
    01:00 +25°C° 0 mm 3 mps 713 mmHg 74%
    02:00 +24°C° 0 mm 3 mps 713 mmHg 78%
    03:00 +24°C° 0 mm 3 mps 713 mmHg 83%
    04:00 +24°C° 0 mm 3 mps 714 mmHg 82%
    05:00 +24°C° 0 mm 3 mps 714 mmHg 82%
    06:00 +24°C° 0 mm 3 mps 715 mmHg 82%
    07:00 +26°C° 0 mm 3 mps 716 mmHg 70%
    08:00 +29°C° 0 mm 3 mps 716 mmHg 57%
    09:00 +31°C° 0 mm 3 mps 717 mmHg 45%
    10:00 +35°C° 0 mm 3 mps 716 mmHg 39%
    11:00 +37°C° 0 mm 3 mps 716 mmHg 32%
    12:00 +40°C° 0 mm 3 mps 716 mmHg 25%
    13:00 +40°C° 0 mm 3 mps 715 mmHg 24%
    14:00 +40°C° 0 mm 3 mps 714 mmHg 23%
    15:00 +40°C° 0 mm 3 mps 713 mmHg 21%
    16:00 +38°C° 0 mm 3 mps 713 mmHg 24%
    17:00 +36°C° 0 mm 2 mps 713 mmHg 27%
    18:00 +34°C° 0 mm 2 mps 713 mmHg 30%
    19:00 +31°C° 0 mm 2 mps 713 mmHg 33%
    20:00 +30°C° 0 mm 2 mps 713 mmHg 37%
    21:00 +28°C° 0 mm 1 mps 714 mmHg 41%
    22:00 +27°C° 0 mm 2 mps 714 mmHg 50%
    23:00 +26°C° 0 mm 2 mps 714 mmHg 59%

    18 November, Monday

    Time Temperature Precipitation Wind Pressure Humidity
    00:00 +25°C° 0 mm 3 mps 714 mmHg 68%
    01:00 +24°C° 0 mm 3 mps 715 mmHg 76%
    02:00 +23°C° 0 mm 2 mps 715 mmHg 84%
    03:00 +21°C° 0 mm 2 mps 715 mmHg 91%
    04:00 +23°C° 0 mm 2 mps 715 mmHg 87%
    05:00 +22°C° 0 mm 3 mps 716 mmHg 84%
    06:00 +24°C° 0 mm 3 mps 717 mmHg 80%
    07:00 +26°C° 0 mm 3 mps 717 mmHg 69%
    08:00 +29°C° 0 mm 4 mps 718 mmHg 57%
    09:00 +32°C° 0 mm 4 mps 718 mmHg 46%
    10:00 +34°C° 0 mm 4 mps 718 mmHg 39%
    11:00 +37°C° 0 mm 3 mps 717 mmHg 32%
    12:00 +39°C° 0 mm 3 mps 717 mmHg 26%
    13:00 +40°C° 0 mm 3 mps 716 mmHg 24%
    14:00 +40°C° 0 mm 3 mps 715 mmHg 22%
    15:00 +41°C° 0 mm 4 mps 715 mmHg 20%
    16:00 +38°C° 0 mm 3 mps 714 mmHg 23%
    17:00 +36°C° 0 mm 2 mps 714 mmHg 26%
    18:00 +32°C° 0 mm 2 mps 714 mmHg 28%
    19:00 +31°C° 0 mm 1 mps 715 mmHg 32%
    20:00 +29°C° 0 mm 1 mps 715 mmHg 35%
    21:00 +28°C° 0 mm 1 mps 715 mmHg 39%
    22:00 +27°C° 0 mm 1 mps 716 mmHg 50%
    23:00 +26°C° 0 mm 2 mps 716 mmHg 62%
    Show more